SL-16 DEB

Satellite information

Favourite Embed

Satellite Type and Status

DEBRISIN ORBIT

Key statistics

Satellite SL-16 DEB at a glance.

Uptime

11823

Days in orbit

Revolutions

≈ 14.2

Per day

Orbit

LEO

Low Earth Orbit

Inclination

71.2

Latest

Satellite identification and parameters

Extended collection of information and parameters for SL-16 DEB.

Object identification

Identified? True

Debris? True

Object name: SL-16 DEB

International designator: 1992-093HK

Object number (NORAD): 22549

Object ID (CCSDS): 22549

Country: COMMONWEALTH OF INDEPENDENT STATES (CIS)

Current information (Y/N): Y

RCS size: SMALL

Orbital parameters

Period: 101.413 minutes

Inclination: 71.2485 deg

SMA: 7203.69 km

Apoapsis: 895.575 km

Periapsis: 755.535 km

RAAN: 331.4463 deg

Eccentricy: 0.00972

Argument of periapsis: 98.1796 deg

Mean anomaly: 263.037 deg

Mean motion: 14.19940747 rev/day

Mean motion (dot): 0.00003922 rev/day2

B* drag term: 0.0017797 1/REarth

Two-line elements (TLE)

Creation date: May 8, 2025, 10:26 p.m.

Reference frame: TEME

Reference center: EARTH

Epoch: May 8, 2025, 2:10 p.m. UTC

TLE line 0: 0 SL-16 DEB

TLE line 1: 1 22549U 92093HK 25128.59053972 .00003922 00000-0 17797-2 0 9992

TLE line 2: 2 22549 71.2485 331.4463 0097200 98.1796 263.0370 14.19940747654364

Live tracking on map

Real-time ground track for satellite SL-16 DEB.

In-orbit conjunctions

A list of the most updated potential collisions computed for object SL-16 DEB.

Target Orbit TCA Probability of collision Miss distance Type
CZ-6A DEB LEO 2025-02-12 17:08:47 0.0005477213 163.0 (m) DEBRIS
FENGYUN 1C DEB SSO 2024-11-16 22:22:52 0.0001677029 922.0 (m) DEBRIS
SL-16 DEB SSO 2024-11-12 20:06:19 0.0001242612 950.0 (m) DEBRIS

Associated space launch

Second generation ELING satellite

SL-16 DEB was lifted into orbit during the mission ‘Zenit-2 | Tselina-2 12’, on board a Zenit-2 space rocket.

The launch took place on Dec. 25, 1992, 5:56 a.m. from 45/1.

For more information about the launch, click the button.

Launch to space Zenit-2 | Tselina-2 12
Zenit-2 | Tselina-2 12

Agency: N/A

Status: Launch Successful

Launch date: Dec. 25, 1992, 5:56 a.m. UTC

Rocket: Zenit-2

Launch pad: 45/1

Location: Baikonur Cosmodrome, Republic of Kazakhstan

...

Latest news about this satellite

There are no fresh news available about this satellite. Check back as we update our databases every day.


Newsletter sign-up

Weekly statistics, charts and insights to help you stay on top of the space industry.